Regional Weather Roundup
Issued by NWS State College, PA

Home | Current Version | Previous Version | Graphics & Text | Print | Product List | Glossary On
Versions: 1 2 3 4 5 6 7 8 9 10 11 12 13 14 15 16 17 18 19 20 21 22 23 24 25 26 27 28 29 30 31 32 33 34 35 36 37 38 39 40 41 42 43 44 45 46 47 48 49 50
000
ASUS41 KCTP 181810
RWRCTP

REGIONAL WEATHER ROUNDUP
NATIONAL WEATHER SERVICE STATE COLLEGE PA
200 PM EDT SAT APR 18 2015

Note: "fair" indicates few or no clouds below 12,000 feet with no
significant weather and/or obstructions to visibility.

* = STATION THAT DOES NOT REPORT PRECIPITATION /E.G. RAIN...SNOW...ETC/
    THUNDER OR FOG.

PAZ002>004-007>009-013>016-020>023-029>032-181900-
WESTERN PENNSYLVANIA

CITY           SKY/WX    TMP DP  RH WIND       PRES   REMARKS
ERIE           SUNNY     64  42  44 W10       30.06R
MEADVILLE      SUNNY     72  43  35 NW9G18    30.05R
FRANKLIN*      SUNNY     72  43  35 NW10G18   30.06S
NEW CASTLE     FAIR      74  45  35 NW8       30.04F
BEAVER COUNTY  SUNNY     75  41  29 N10G17    30.03F
BUTLER*        SUNNY     73  41  31 NE8       30.05F
PITTSBURGH INT MOSUNNY   76  40  27 CALM      30.02F
PITTSBURGH     SUNNY     75  35  23 NW8G21    30.02F
INDIANA*       SUNNY     73  39  29 NW8G18    30.06S
LATROBE        SUNNY     73  41  31 NW13      30.05F
WASHINGTON CO* SUNNY     73  43  33 CALM      30.04F
$$

PAZ004>006-010>012-017>019-024>028-033>037-041-042-045-046-049>053-181900-
CENTRAL PENNSYLVANIA

CITY           SKY/WX    TMP DP  RH WIND       PRES   REMARKS
BRADFORD       MOSUNNY   71  39  31 MISG      30.02S
DUBOIS         MOSUNNY   73  40  30 VRB7G21   30.01F
CLEARFIELD     SUNNY     75  40  28 NW14G21   30.00F
JOHNSTOWN      SUNNY     69  39  33 W13G21    30.04F
ALTOONA        SUNNY     75  39  27 NW14      30.02F
STATE COLLEGE  SUNNY     75  39  27 NW12G20   29.98F
WILLIAMSPORT   SUNNY     78  39  24 SW13G18   29.92F
SELINSGROVE    SUNNY     77  43  29 NW15      29.95F
FT INDIANTOWN  MOSUNNY   77  39  25 W14G20    29.95F
CAPITAL CITY   SUNNY     77  42  28 CALM      29.95F
HARRISBURG     MOSUNNY   77  40  26 SW3       29.95F
YORK           SUNNY     76  40  27 CALM      29.97F
$$

PAZ038>040-043-044-047-048-054-055-060>062-067>071-181900-
EASTERN PENNSYLVANIA

CITY           SKY/WX    TMP DP  RH WIND       PRES   REMARKS
SCRANTON       MOSUNNY   74  40  29 SW10      29.92F
MOUNT POCONO   MOSUNNY   70  38  31 W12G22    29.95F
ALLENTOWN      MOSUNNY   78  42  27 VRB7      29.93F
QUAKERTOWN*    PTCLDY    75  45  33 W9        29.96F
READING        SUNNY     77  42  28 MISG      29.94F
LANCASTER      SUNNY     75  43  31 NW8       29.96F
COATESVILLE    CLEAR     73  41  31 N7        29.98F
POTTSTOWN      SUNNY     77  41  27 NW9       29.96F
BLUE BELL      SUNNY     77  43  29 W5        29.94F
DOYLESTOWN     SUNNY     76  40  27 W10       29.94F
WILLOW GROVE   NOT AVBL
NORTH PHILA    SUNNY     78  38  23 N9        29.96F
PHILADELPHIA   PTSUNNY   78  32  18 W9        29.95F
$$



USA.gov is the U.S. government's official web portal to all federal, state and local government web resources and services.